Portada
METAR-TAF:

METAR-TAF

Aeroports :

Birdsville, Austràlia

latitud: 25-53-51S, longitud: 139-20-51E, altitud: 48 m

Observació

L'informe es va fer fa 1 hora i 3 minuts, a les 23:00 UTC
Vent 21 kt del Sud-Oest
Temperatura 30°C
Humitat 43%
Pressió 1006 hPa

METAR: YBDV 122300Z AUTO 22021KT //// // ////// 30/16 Q1006

Hora: 10:03 (00:03 UTC)


TAF: manca

Observacions i pronòstics meteorològics de més de 4000 aeroports (METAR i TAF).

Les estacions disponibles són els punts grocs i vermells al mapa.

Posi el ratolí al punt desitjat per veure el nom de l'estació.

Feu clic per veure les observacions i els pronòstics meteorològics.

Per canviar el mapa: feu clic els botons verds amb una creu de color negre per apropar; al botó verd amb un guió per allunyar la imatge; o en les fletxes verdes per a mapes adjacents.


METAR-TAF: